This demonstration page uses our WeatherBlox Daily Observations layout. Learn more.

Left ArrowRight Arrow

47.50024, -111.30081

Hourly Observations for April 3, 2019

Temp ( °F °C ) Dew Point ( °F °C ) Humidity (%) Winds ( mph kmh ) Pressure ( in mb ) Visibility ( mi km ) Precip ( " mm )
12:53 am 00:53 Clear 36 2.2 24 -4.4 62 62 ESE 9 15 29.91 1013 10 16 0.00 0.00
1:53 am 01:53 Clear 33 0.6 23 -5 66 66 ESE 7 11 29.91 1013 10 16 0.00 0.00
2:53 am 02:53 Clear 32 0 24 -4.4 73 73 ESE 7 11 29.89 1012 10 16 0.00 0.00
3:53 am 03:53 Clear 30 -1.1 23 -5 75 75 SSE 5 7 29.89 1012 10 16 0.00 0.00
4:53 am 04:53 Clear 28 -2.2 23 -5 81 81 SSW 6 9 29.89 1012 10 16 0.00 0.00
5:53 am 05:53 Clear 30 -1.1 24 -4.4 79 79 Calm 29.88 1012 10 16 0.00 0.00
6:53 am 06:53 Clear 27 -2.8 23 -5 85 85 S 5 7 29.90 1012 10 16 0.00 0.00
7:53 am 07:53 Sunny 33 0.6 27 -2.8 78 78 SSE 3 6 29.89 1012 10 16 0.00 0.00
8:53 am 08:53 Sunny 40 4.4 25 -3.9 55 55 SSE 13 20 29.87 1012 10 16 0.00 0.00
9:53 am 09:53 Sunny 47 8.3 27 -2.8 46 46 S 16 26 29.84 1011 10 16 0.00 0.00
10:53 am 10:53 Sunny 50 10 27 -2.8 41 41 SSW 16 26 29.83 1010 10 16 0.00 0.00
11:53 am 11:53 Mostly Sunny 54 12.2 28 -2.2 37 37 SSW 15 24 29.81 1010 10 16 0.00 0.00
12:53 pm 12:53 Partly Cloudy 55 12.8 29 -1.7 37 37 SW 16 26 29.79 1009 10 16 0.00 0.00
1:53 pm 13:53 Cloudy 56 13.3 32 0 40 40 SW 16 26 29.80 1009 10 16 0.00 0.03
2:53 pm 14:53 Cloudy 55 12.8 30 -1.1 38 38 SW 18 30 29.80 1009 10 16 0.00 0.00
3:53 pm 15:53 Cloudy 55 12.8 31 -0.6 40 40 SW 16 26 29.81 1010 10 16 0.00 0.00
4:53 pm 16:53 Partly Cloudy 55 12.8 32 0 42 42 SW 17 28 29.81 1010 10 16 0.00 0.00
5:53 pm 17:53 Partly Cloudy 53 11.7 34 1.1 48 48 SW 18 30 29.82 1010 10 16 0.00 0.00
6:53 pm 18:53 Sunny 51 10.6 34 1.1 52 52 SW 14 22 29.85 1011 10 16 0.00 0.00
7:53 pm 19:53 Mostly Sunny 48 8.9 34 1.1 58 58 SW 13 20 29.84 1011 10 16 0.00 0.00
8:53 pm 20:53 Partly Cloudy 46 7.8 33 0.6 61 61 SW 9 15 29.85 1011 10 16 0.00 0.00
9:53 pm 21:53 Partly Cloudy 46 7.8 34 1.1 63 63 SW 13 20 29.84 1011 10 16 0.00 0.00
10:53 pm 22:53 Clear 46 7.8 34 1.1 63 63 SW 15 24 29.84 1011 10 16 0.00 0.00
11:53 pm 23:53 Clear 47 8.3 33 0.6 59 59 SW 14 22 29.83 1010 10 16 0.00 0.00

Powered by AerisWeather